カタログに戻る

THORAD DELTA 1 DEB

運用中LEO
NORAD 18693·DEBRIS·🇺🇸 United States

打ち上げ Nov 15, 1974 から Vandenberg Space Force Base

Loading…

次のパス (今後24時間)

TLE

経年Source: Space-Track

元期: Sep 12, 2026, 09:41 UTC

1 18693U 74089FA  26255.40390200 -.00001204  00000-0 -35937-2 0  9991
2 18693 101.6393 213.2501 0197252 288.9382 225.2959 12.98114350792547

AllMySatでTHORAD DELTA 1 DEBをリアルタイム追跡

Download on the App Store